This is the latest recevied weather packets stored in our database for station/object N9BLE. If no packets are shown the sender has not sent any weather packets the latest 10 day(s).
| Time | Temp. | Humidity | Pressure | Rain* | Wind** | Luminosity | Snow |
|---|---|---|---|---|---|---|---|
| 1777440336 | 9.44° C | 81% | 1016.9 hPa | 0 mm | - | 0 W/m² | - |
| 1777440032 | 10° C | 81% | 1016.9 hPa | 0 mm | - | 0 W/m² | - |
| 1777439728 | 10° C | 80% | 1016.9 hPa | 0 mm | - | 0 W/m² | - |
| 1777439424 | 10° C | 79% | 1016.7 hPa | 0 mm | - | 0 W/m² | - |
| 1777439119 | 10° C | 79% | 1016.7 hPa | 0 mm | - | 0 W/m² | - |
| 1777438816 | 10.56° C | 77% | 1016.6 hPa | 0 mm | - | 0 W/m² | - |
| 1777438513 | 10.56° C | 76% | 1016.6 hPa | 0 mm | - | 0 W/m² | - |
| 1777438209 | 10.56° C | 75% | 1016.6 hPa | 0 mm | - | 0 W/m² | - |
| 1777437905 | 11.11° C | 74% | 1016.7 hPa | 0 mm | - | 0 W/m² | - |
| 1777437601 | 11.11° C | 74% | 1016.8 hPa | 0 mm | - | 0 W/m² | - |
| 1777437299 | 11.11° C | 73% | 1017 hPa | 0 mm | - | 0 W/m² | - |
| 1777436994 | 11.67° C | 74% | 1017 hPa | 0 mm | - | 0 W/m² | - |
| 1777436692 | 11.67° C | 73% | 1016.9 hPa | 0 mm | - | 0 W/m² | - |
| 1777436387 | 11.67° C | 74% | 1017.1 hPa | 0 mm | - | 0 W/m² | - |
| 1777436084 | 11.67° C | 74% | 1016.9 hPa | 0 mm | - | 0 W/m² | - |
| 1777435780 | 11.67° C | 73% | 1017 hPa | 0 mm | - | 0 W/m² | - |
| 1777435477 | 12.22° C | 73% | 1017 hPa | 0 mm | - | 0 W/m² | - |
| 1777435173 | 11.67° C | 73% | 1017.1 hPa | 0 mm | - | 0 W/m² | - |
| 1777434873 | 11.67° C | 74% | 1017.1 hPa | 0 mm | - | 0 W/m² | - |
| 1777434573 | 11.67° C | 75% | 1017.5 hPa | 0 mm | - | 0 W/m² | - |
| 1777434269 | 12.22° C | 74% | 1017.7 hPa | 0 mm | - | 0 W/m² | - |
| 1777433967 | 12.22° C | 72% | 1017.8 hPa | 0 mm | - | 0 W/m² | - |
| 1777433663 | 12.22° C | 72% | 1017.9 hPa | 0 mm | - | 0 W/m² | - |
| 1777433359 | 12.78° C | 72% | 1017.9 hPa | 0 mm | - | 0 W/m² | - |
| 1777433055 | 12.78° C | 72% | 1017.9 hPa | 0 mm | - | 0 W/m² | - |
* Rain latest hour (hover to see other rain measurements)
** Current wind speed in m/s (hover to see current wind gust speed)